Regional Weather Roundup
Issued by NWS

Home | Current Version | Previous Version | Graphics & Text | Print | Product List | Glossary On
Versions: 1 2 3 4 5 6 7 8 9 10 11 12 13 14 15 16 17 18 19 20 21 22 23 24 25 26 27 28 29 30 31 32 33 34 35 36 37 38 39 40 41 42 43 44 45 46 47 48 49 50
000
ASUS43 KOAX 050010
RWRNE

WEATHER ROUNDUP FOR NEBRASKA
NATIONAL WEATHER SERVICE OMAHA NE
700 PM CDT TUE AUG 04 2015

NOTES: SATELLITE DATA IS BEING USED TO AUGMENT CLOUD COVER ABOVE
       12000 FEET.
       "FAIR" INDICATES FEW OR NO CLOUDS BELOW 12,000 FEET WITH NO
       SIGNIFICANT WEATHER AND/OR OBSTRUCTIONS TO VISIBILITY.

  * THESE STATIONS DO NOT REPORT WEATHER SUCH AS RAIN...SNOW OR FOG.

NEZ001>004-019>022-054>056-050100-
NEBRASKA PANHANDLE

CITY           SKY/WX    TMP DP  RH WIND       PRES   REMARKS
SCOTTSBLUFF    PTSUNNY   71  50  47 E3        30.00S
6HR MIN TEMP:  64; 6HR MAX TEMP:  82; 6HR PCP:  0.34;

ALLIANCE       CLOUDY    74  62  66 S13       29.99S
6HR MIN TEMP:  69; 6HR MAX TEMP:  76;

CHADRON        PTSUNNY   79  60  52 SW8       29.96R
6HR MIN TEMP:  79; 6HR MAX TEMP:  84;

KIMBALL        CLOUDY    72  56  57 E3        30.05S
SIDNEY         PTSUNNY   72  61  68 SE6       30.04R
6HR MIN TEMP:  68; 6HR MAX TEMP:  78; 6HR PCP: TRACE;

$$

NEZ057>060-069>072-079>082-050100-
SOUTHWEST NEBRASKA

CITY           SKY/WX    TMP DP  RH WIND       PRES   REMARKS
NORTH PLATTE   CLOUDY    68  63  84 N6        29.97R
6HR MIN TEMP:  66; 6HR MAX TEMP:  68; 6HR PCP:  0.45;

IMPERIAL       CLOUDY    73  61  65 CALM      29.97S
6HR MIN TEMP:  59; 6HR MAX TEMP:  73; 6HR PCP:  0.95;

LEXINGTON      LGT RAIN  65  64  96 W5        29.94R
MCCOOK         CLOUDY    65  63  93 CALM      29.94F
6HR MIN TEMP:  61; 6HR MAX TEMP:  70; 6HR PCP:  0.81;

OGALLALA       CLOUDY    71  62  73 S6        29.98S
$$

NEZ005>010-023>029-035>040-094-050100-
NORTH CENTRAL NEBRASKA

CITY           SKY/WX    TMP DP  RH WIND       PRES   REMARKS
AINSWORTH      CLOUDY    75  65  71 E9        29.98S
BROKEN BOW     LGT RAIN  72  67  84 N5        29.94R
6HR MIN TEMP:  71; 6HR MAX TEMP:  79; 6HR PCP: TRACE;

O`NEILL        CLOUDY    76  63  65 E12       29.98R
ORD            CLOUDY    72  67  84 E13       29.93R THUNDER
6HR MIN TEMP:  73; 6HR MAX TEMP:  82;

THEDFORD       CLOUDY    74  64  69 SE6       29.99S
$$

NEZ041-046>049-061>064-073>077-083>087-050100-
SOUTH CENTRAL NEBRASKA

CITY           SKY/WX    TMP DP  RH WIND       PRES   REMARKS
GRAND ISLAND   CLOUDY    68  62  81 S17       29.94F
6HR MIN TEMP:  66; 6HR MAX TEMP:  82; 6HR PCP:  0.01;

AURORA         HVY RAIN  68  66  94 SW16      29.96F
HASTINGS       LGT RAIN  66  63  90 SW9       29.96F
HEBRON         CLOUDY    73  67  82 CALM      29.95R
HOLDREGE       LGT RAIN  64  61  92 SW13      29.95R
KEARNEY *      CLOUDY    64  61  88 SE12      29.98R
YORK           CLOUDY    75  66  73 W20       29.94S
$$

NEZ011>018-030>034-042>045-050100-
NORTHEAST NEBRASKA

CITY           SKY/WX    TMP DP  RH WIND       PRES   REMARKS
NORFOLK        CLOUDY    75  65  70 E8        29.97S
6HR MIN TEMP:  70; 6HR MAX TEMP:  78;

ALBION         CLOUDY    73  65  78 E6        29.96F
BLAIR          MOSUNNY   74  66  76 NE8       29.97R
COLUMBUS *     CLOUDY    73  64  73 E7        29.95F
FREMONT        MOSUNNY   76  66  72 E7        29.96S
TEKAMAH        PTSUNNY   77  66  68 E6        29.96F
6HR MIN TEMP:  72; 6HR MAX TEMP:  79;

WAYNE          PTSUNNY   74  64  69 SE7       29.99S
$$

NEZ050>053-065>068-078-088>093-050100-
SOUTHEAST NEBRASKA

CITY           SKY/WX    TMP DP  RH WIND       PRES   REMARKS
LINCOLN        CLOUDY    82  70  66 SW10      29.92F THUNDER
6HR MIN TEMP:  80; 6HR MAX TEMP:  89;

OMAHA EPPLEY   PTSUNNY   77  67  71 NE9       29.96R
6HR MIN TEMP:  71; 6HR MAX TEMP:  79;

BEATRICE       CLOUDY    75  66  73 S13       29.94F
FALLS CITY     CLOUDY    76  68  76 S12G23    29.95R
6HR MIN TEMP:  76; 6HR MAX TEMP:  82;

NEBRASKA CITY  MOSUNNY   79  69  72 S6        29.94S
PLATTSMOUTH    CLOUDY    73  68  85 NE8G16    29.96R
$$

NEZ044-045-051>053-067-050100-
OMAHA AREA

CITY           SKY/WX    TMP DP  RH WIND       PRES   REMARKS
OMAHA EPPLEY   PTSUNNY   77  67  71 NE9       29.96R
6HR MIN TEMP:  71; 6HR MAX TEMP:  79;

BLAIR          MOSUNNY   74  66  76 NE8       29.97R
FREMONT        MOSUNNY   76  66  72 E7        29.96S
MILLARD        PTSUNNY   77  69  76 NE7       29.95S
OFFUTT AFB     MOSUNNY   76  69  79 NE9       29.94S
PLATTSMOUTH    CLOUDY    73  68  85 NE8G16    29.96R
WAHOO          MOCLDY    76  69  79 E8        29.94F
$$


USA.gov is the U.S. government's official web portal to all federal, state and local government web resources and services.